Location: Possagno
(45.8500°N, 11.8667°E)
Time: 21:28:02
(UTC+00:00)

Resurs 1-4 Rocket - Pass Details

Date: 30 September 2020
Orbit: 800 x 813 km, 98.6° (Epoch: 27 October)

Event Time Altitude Azimuth Distance (km) Brightness Sun altitude
Rises 02:39:40 0° 358° (N) 3,330 5.6 -26.3°
Reaches altitude 10° 02:43:06 10° 335° (NNW) 2,397 4.5 -25.7°
Enters shadow 02:43:59 12° 326° (NW) 2,241 4.3 -25.6°
